This demonstration page uses our WeatherBlox Daily Observations layout. Learn more.

Left ArrowRight Arrow

41.12389, -100.76542

Hourly Observations for March 15, 2021

Temp ( °F °C ) Dew Point ( °F °C ) Humidity (%) Winds ( mph kmh ) Pressure ( in mb ) Visibility ( mi km ) Precip ( " mm )
12:53 am 00:53 Cloudy 37 2.8 35 1.7 93 93 NE 10 17 29.86 1011 7 11 0.01 0.25
1:53 am 01:53 Cloudy 37 2.8 35 1.7 93 93 NE 9 15 29.84 1011 10 16 0.00 0.00
2:53 am 02:53 Cloudy 37 2.8 34 1.1 89 89 N 10 17 29.83 1010 10 16 0.00 0.00
3:45 am 03:45 Cloudy 36 2.2 33 0.6 89 89 NNE 15 24 29.87 1011 10 16 0.00 0.00
3:53 am 03:53 Cloudy 36 2.2 33 0.6 89 89 NNE 13 20 29.82 1010 10 16 0.00 0.00
4:33 am 04:33 Cloudy 35 1.7 32 0 89 89 N 10 17 29.88 1012 10 16 0.00 0.00
4:53 am 04:53 Cloudy with Light Rain 35 1.7 31 -0.6 85 85 N 10 17 29.84 1011 9 14 0.00 0.00
5:53 am 05:53 Cloudy with Light Rain 34 1.1 32 0 92 92 N 6 9 29.84 1011 7 11 0.02 0.51
6:53 am 06:53 Cloudy 34 1.1 31 -0.6 89 89 N 7 11 29.83 1010 10 16 0.00 0.00
7:53 am 07:53 Cloudy 34 1.1 30 -1.1 85 85 N 6 9 29.84 1011 10 16 0.00 0.00
8:22 am 08:22 Cloudy 34 1.1 30 -1.1 85 85 N 6 9 29.89 1012 10 16 0.00 0.00
8:44 am 08:44 Cloudy 35 1.7 31 -0.6 85 85 NNW 8 13 29.88 1012 10 16 0.00 0.00
8:53 am 08:53 Cloudy 35 1.7 31 -0.6 85 85 NW 7 11 29.84 1011 10 16 0.00 0.00
9:53 am 09:53 Cloudy 36 2.2 31 -0.6 82 82 NW 8 13 29.84 1011 10 16 0.00 0.00
10:53 am 10:53 Cloudy 37 2.8 32 0 82 82 NW 8 13 29.84 1011 10 16 0.00 0.00
11:03 am 11:03 Cloudy 38 3.3 32 0 79 79 N 9 15 29.88 1012 10 16 0.00 0.00
11:37 am 11:37 Cloudy 39 3.9 31 -0.6 73 73 N 7 11 29.87 1011 10 16 0.00 0.00
11:53 am 11:53 Cloudy 41 5 32 0 70 70 N 8 13 29.84 1011 10 16 0.00 0.00
12:53 pm 12:53 Cloudy 42 5.6 33 0.6 71 71 NE 6 9 29.83 1010 10 16 0.00 0.00
1:53 pm 13:53 Cloudy 42 5.6 33 0.6 71 71 Calm 29.83 1010 10 16 0.00 0.00
2:48 pm 14:48 Cloudy 45 7 34 1 66 66 W 3 6 29.80 1009 10 16 0.00 0.00
2:53 pm 14:53 Cloudy 45 7.2 33 0.6 63 63 Calm 29.79 1009 10 16 0.00 0.00
3:53 pm 15:53 Cloudy 45 7.2 33 0.6 63 63 SW 7 11 29.77 1008 10 16 0.00 0.00
4:00 pm 16:00 Cloudy 45 7.2 33 0.6 63 63 WSW 8 13 29.77 1008 10 16 0.00 0.00
4:53 pm 16:53 Cloudy 43 6.1 34 1.1 71 71 W 15 24 29.79 1009 10 16 0.00 0.00
5:53 pm 17:53 Mostly Cloudy 43 6.1 33 0.6 68 68 SW 3 6 29.79 1009 10 16 0.00 0.00
6:10 pm 18:10 Partly Cloudy 43 6.1 33 0.6 68 68 SW 7 11 29.80 1009 10 16 0.00 0.00
6:43 pm 18:43 Mostly Cloudy 43 6.1 33 0.6 68 68 WSW 7 11 29.81 1009 10 16 0.00 0.00
6:53 pm 18:53 Cloudy 43 6.1 32 0 65 65 W 8 13 29.80 1009 10 16 0.00 0.00
7:06 pm 19:06 Cloudy 42 5.6 32 0 68 68 W 8 13 29.81 1010 10 16 0.00 0.00
7:53 pm 19:53 Cloudy 41 5 32 0 70 70 W 8 13 29.83 1010 10 16 0.00 0.00
8:53 pm 20:53 Cloudy 41 5 32 0 70 70 Calm 29.84 1011 10 16 0.00 0.00
9:53 pm 21:53 Mostly Cloudy 39 3.9 33 0.6 79 79 NE 5 7 29.82 1010 10 16 0.00 0.00
10:53 pm 22:53 Cloudy 38 3.3 33 0.6 83 83 ESE 3 6 29.83 1010 10 16 0.00 0.00
11:53 pm 23:53 Cloudy 38 3.3 33 0.6 83 83 SE 6 9 29.83 1010 10 16 0.00 0.00

Powered by AerisWeather